User: anonymous   Login
Location: Unspecified
(0.0000°N, 0.0000°E)
Time: 15:46:46
(UTC+00:00)
Language:

Cosmos 1626 - Orbit

View from above orbital plane
View from above orbital plane
View from above satellite
View from above satellite

Ground track
Ground track

The orbit data is extracted from the following two-line orbital elements,

1 15494U 85009A   18198.15654953  .00000690  00000-0  27750-4 0  9990
2 15494  82.4782 214.2792 0004041 102.3787 257.7902 15.23209809828885
Epoch (UTC): 17 July 2018 03:45:25
Eccentricity: 0.0004041
inclination: 82.4782°
perigee height: 493 km
apogee height: 499 km
right ascension of ascending node: 214.2792°
argument of perigee: 102.3787°
revolutions per day: 15.23209809
mean anomaly at epoch: 257.7902°
orbit number at epoch: 82888

The dashed part of the orbit path shows where the satellite is in the earth's shadow,  

DLR